• In Moldova, Republic
  • List of Countries
  • For 7 days
  • Water Temperature
  • Satellite Maps
  • Weather Map
  • Weather Widgets
  • user-avatar
    Login

    Hourly Weather Korçe

    Today, 16 January, Wednesday

    Time Temperature Precipitation Wind Pressure Humidity
    00:00 -9°C° 0 mm 1 mps 664 mmHg 59%
    01:00 -8°C° 0 mm 1 mps 664 mmHg 55%
    02:00 -8°C° 0 mm 1 mps 664 mmHg 54%
    03:00 -8°C° 0 mm 1 mps 664 mmHg 52%
    04:00 -8°C° 0 mm 1 mps 665 mmHg 50%
    05:00 -8°C° 0 mm 1 mps 665 mmHg 49%
    06:00 -8°C° 0 mm 0 mps 665 mmHg 48%
    07:00 -7°C° 0 mm 1 mps 665 mmHg 48%
    08:00 -4°C° 0 mm 1 mps 666 mmHg 49%
    09:00 -4°C° 0 mm 2 mps 667 mmHg 51%
    10:00 -2°C° 0 mm 2 mps 667 mmHg 52%
    11:00 -1°C° 0 mm 2 mps 667 mmHg 55%
    12:00 -1°C° 0 mm 3 mps 668 mmHg 57%
    13:00 0°C° 0 mm 3 mps 667 mmHg 60%
    14:00 -1°C° 0 mm 2 mps 667 mmHg 64%
    15:00 -2°C° 0 mm 2 mps 667 mmHg 68%
    16:00 -2°C° 0 mm 2 mps 667 mmHg 72%
    17:00 -2°C° 0 mm 1 mps 667 mmHg 73%
    18:00 -3°C° 0 mm 1 mps 666 mmHg 75%
    19:00 -4°C° 0 mm 1 mps 666 mmHg 77%
    20:00 -4°C° 0 mm 1 mps 666 mmHg 76%
    21:00 -4°C° 0 mm 1 mps 666 mmHg 76%
    22:00 -4°C° 0 mm 1 mps 666 mmHg 76%
    23:00 -3°C° 0 mm 1 mps 666 mmHg 75%

    Tomorrow, 17 January, Thursday

    Time Temperature Precipitation Wind Pressure Humidity
    00:00 -4°C° 0 mm 0 mps 666 mmHg 75%
    01:00 -4°C° 0 mm 0 mps 666 mmHg 75%
    02:00 -4°C° 0 mm 0 mps 666 mmHg 74%
    03:00 -4°C° 0 mm 0 mps 666 mmHg 73%
    04:00 -4°C° 0 mm 0 mps 666 mmHg 72%
    05:00 -3°C° 0 mm 1 mps 666 mmHg 71%
    06:00 -3°C° 0 mm 1 mps 666 mmHg 69%
    07:00 -3°C° 0 mm 1 mps 666 mmHg 68%
    08:00 -1°C° 0 mm 1 mps 667 mmHg 66%
    09:00 +1°C° 0 mm 1 mps 667 mmHg 64%
    10:00 +3°C° 0 mm 1 mps 668 mmHg 61%
    11:00 +4°C° 0 mm 1 mps 668 mmHg 62%
    12:00 +5°C° 0 mm 1 mps 668 mmHg 62%
    13:00 +5°C° 0 mm 1 mps 667 mmHg 63%
    14:00 +4°C° 0 mm 1 mps 667 mmHg 65%
    15:00 +3°C° 0 mm 1 mps 667 mmHg 67%
    16:00 +2°C° 0 mm 1 mps 666 mmHg 69%
    17:00 +1°C° 0 mm 1 mps 666 mmHg 73%
    18:00 -2°C° 0 mm 2 mps 666 mmHg 77%
    19:00 -3°C° 0 mm 2 mps 665 mmHg 81%
    20:00 -3°C° 0 mm 2 mps 665 mmHg 83%
    21:00 -3°C° 0 mm 2 mps 665 mmHg 85%
    22:00 -3°C° 0 mm 2 mps 665 mmHg 87%
    23:00 -3°C° 0 mm 2 mps 665 mmHg 88%

    Day after tomorrow, 18 January, Friday

    Time Temperature Precipitation Wind Pressure Humidity
    00:00 -3°C° 0 mm 2 mps 665 mmHg 90%
    01:00 -3°C° 0 mm 2 mps 665 mmHg 91%
    02:00 -2°C° 0 mm 2 mps 665 mmHg 93%
    03:00 -1°C° 0 mm 2 mps 665 mmHg 94%
    04:00 -1°C° 0 mm 2 mps 665 mmHg 96%
    05:00 -1°C° 0.5 mm 2 mps 665 mmHg 96%
    06:00 +1°C° 0.5 mm 2 mps 665 mmHg 96%
    07:00 +1°C° 0.5 mm 2 mps 665 mmHg 97%
    08:00 +1°C° 1.2 mm 2 mps 665 mmHg 96%
    09:00 +1°C° 1.2 mm 2 mps 665 mmHg 96%
    10:00 +2°C° 1.2 mm 2 mps 666 mmHg 95%
    11:00 +1°C° 1.8 mm 2 mps 665 mmHg 96%
    12:00 +1°C° 1.8 mm 2 mps 665 mmHg 96%
    13:00 +1°C° 1.8 mm 2 mps 665 mmHg 96%
    14:00 +1°C° 1.9 mm 2 mps 665 mmHg 97%
    15:00 +1°C° 1.9 mm 2 mps 665 mmHg 97%
    16:00 +1°C° 1.9 mm 2 mps 665 mmHg 97%
    17:00 +1°C° 0.4 mm 2 mps 665 mmHg 97%
    18:00 +1°C° 0.4 mm 2 mps 665 mmHg 97%
    19:00 +1°C° 0.4 mm 2 mps 665 mmHg 97%
    20:00 +1°C° 0.1 mm 2 mps 665 mmHg 97%
    21:00 +1°C° 0.1 mm 2 mps 665 mmHg 97%
    22:00 +1°C° 0.1 mm 2 mps 666 mmHg 97%
    23:00 +1°C° 0.1 mm 2 mps 666 mmHg 96%

    19 January, Saturday

    Time Temperature Precipitation Wind Pressure Humidity
    00:00 +1°C° 0.1 mm 2 mps 665 mmHg 95%
    01:00 +1°C° 0.1 mm 2 mps 665 mmHg 94%
    02:00 -1°C° 0 mm 2 mps 665 mmHg 93%
    03:00 -1°C° 0 mm 2 mps 665 mmHg 91%
    04:00 -1°C° 0 mm 2 mps 665 mmHg 90%
    05:00 -1°C° 0 mm 2 mps 665 mmHg 89%
    06:00 -1°C° 0 mm 2 mps 665 mmHg 88%
    07:00 -1°C° 0 mm 2 mps 665 mmHg 87%
    08:00 +1°C° 0 mm 2 mps 665 mmHg 87%
    09:00 +2°C° 0 mm 2 mps 665 mmHg 88%
    10:00 +3°C° 0 mm 2 mps 666 mmHg 88%
    11:00 +3°C° 0.6 mm 2 mps 665 mmHg 90%
    12:00 +3°C° 0.6 mm 2 mps 665 mmHg 92%
    13:00 +3°C° 0.6 mm 2 mps 665 mmHg 94%
    14:00 +2°C° 0.8 mm 2 mps 664 mmHg 94%
    15:00 +2°C° 0.8 mm 2 mps 664 mmHg 94%
    16:00 +2°C° 0.8 mm 2 mps 664 mmHg 95%
    17:00 +2°C° 0.5 mm 2 mps 664 mmHg 95%
    18:00 +2°C° 0.5 mm 2 mps 664 mmHg 95%
    19:00 +2°C° 0.5 mm 2 mps 664 mmHg 95%
    20:00 +2°C° 0.4 mm 2 mps 664 mmHg 94%
    21:00 +2°C° 0.4 mm 2 mps 664 mmHg 94%
    22:00 +2°C° 0.4 mm 2 mps 664 mmHg 93%
    23:00 +2°C° 0.7 mm 2 mps 664 mmHg 93%

    20 January, Sunday

    Time Temperature Precipitation Wind Pressure Humidity
    00:00 +1°C° 0.7 mm 2 mps 664 mmHg 93%
    01:00 +1°C° 0.7 mm 2 mps 663 mmHg 92%
    02:00 +1°C° 0.1 mm 2 mps 663 mmHg 93%
    03:00 +1°C° 0.1 mm 2 mps 663 mmHg 94%
    04:00 +1°C° 0.1 mm 2 mps 663 mmHg 94%
    05:00 +1°C° 0 mm 2 mps 663 mmHg 94%
    06:00 -1°C° 0 mm 2 mps 663 mmHg 95%
    07:00 -1°C° 0 mm 2 mps 663 mmHg 95%
    08:00 +1°C° 0 mm 2 mps 663 mmHg 93%
    09:00 +2°C° 0 mm 2 mps 664 mmHg 91%
    10:00 +4°C° 0 mm 2 mps 664 mmHg 89%
    11:00 +4°C° 0.1 mm 2 mps 664 mmHg 87%
    12:00 +4°C° 0.1 mm 2 mps 664 mmHg 86%
    13:00 +5°C° 0.1 mm 2 mps 664 mmHg 84%
    14:00 +4°C° 0.2 mm 2 mps 664 mmHg 86%
    15:00 +5°C° 0.2 mm 1 mps 664 mmHg 87%
    16:00 +4°C° 0.2 mm 1 mps 663 mmHg 89%
    17:00 +3°C° 0 mm 1 mps 664 mmHg 90%
    18:00 +3°C° 0 mm 1 mps 664 mmHg 92%
    19:00 +2°C° 0 mm 1 mps 664 mmHg 93%
    20:00 +1°C° 0 mm 1 mps 664 mmHg 92%
    21:00 +1°C° 0 mm 1 mps 664 mmHg 92%
    22:00 0°C° 0 mm 1 mps 664 mmHg 91%
    23:00 0°C° 0 mm 1 mps 664 mmHg 91%

    21 January, Monday

    Time Temperature Precipitation Wind Pressure Humidity
    00:00 0°C° 0 mm 1 mps 664 mmHg 91%
    01:00 0°C° 0 mm 1 mps 664 mmHg 90%
    02:00 0°C° 0 mm 1 mps 664 mmHg 90%
    03:00 0°C° 0 mm 1 mps 664 mmHg 90%
    04:00 -2°C° 0 mm 2 mps 663 mmHg 90%
    05:00 -2°C° 0 mm 2 mps 664 mmHg 89%
    06:00 -2°C° 0 mm 2 mps 664 mmHg 88%
    07:00 -2°C° 0 mm 2 mps 664 mmHg 87%
    08:00 -1°C° 0 mm 2 mps 664 mmHg 85%
    09:00 +2°C° 0 mm 2 mps 665 mmHg 84%
    10:00 +3°C° 0 mm 2 mps 665 mmHg 82%
    11:00 +4°C° 0 mm 2 mps 665 mmHg 81%
    12:00 +5°C° 0 mm 2 mps 665 mmHg 80%
    13:00 +5°C° 0 mm 2 mps 665 mmHg 79%
    14:00 +5°C° 0.1 mm 2 mps 665 mmHg 82%
    15:00 +4°C° 0.1 mm 2 mps 664 mmHg 85%
    16:00 +3°C° 0.1 mm 2 mps 664 mmHg 89%
    17:00 +3°C° 0.1 mm 2 mps 664 mmHg 89%
    18:00 +2°C° 0.1 mm 2 mps 664 mmHg 89%
    19:00 +1°C° 0.1 mm 2 mps 664 mmHg 90%
    20:00 +1°C° 0 mm 2 mps 664 mmHg 89%
    21:00 +1°C° 0 mm 2 mps 664 mmHg 88%
    22:00 -1°C° 0 mm 3 mps 663 mmHg 87%
    23:00 -1°C° 0.1 mm 3 mps 663 mmHg 87%
    Show more